Tracking 25656 objects as of 21-May-2022
HD Live streaming from Space Station
objects crossing your sky now

COSMOS 1348

Track COSMOS 1348 now!
COSMOS 1348 is classified as:


NORAD ID: 13124
Int'l Code: 1982-029A
Perigee: 6,650.9 km
Apogee: 33,778.6 km
Inclination: 71.9 °
Period: 719.0 minutes
Semi major axis: 26585 km
RCS: 16.1516 m2 (large)
Launch date: April 7, 1982
Source: Commonwealth of Independent States (former USSR) (CIS)
Launch site: PLESETSK MISSILE AND SPACE COMPLEX (PKMTR)
aabbcc
Your satellite tracking list
Your tracking list is empty




NASA's NSSDC Master Catalog

Two Line Element Set (TLE):
1 13124U 82029A   22138.24839639  .00000360  00000-0  00000-0 0  9991
2 13124  71.9244 201.9190 5101920  14.6384   2.8966  2.00276459293523
Source of the keplerian elements: AFSPC